TimePST,TemperatureF,Dew PointF,Humidity,Sea Level PressureIn,VisibilityMPH,Wind Direction,Wind SpeedMPH,Gust SpeedMPH,PrecipitationIn,Events,Conditions,WindDirDegrees,DateUTC
12:53 AM,48.9,45.0,86,30.03,6.0,Calm,Calm,-,N/A,,Clear,0,2013-11-27 08:53:00
1:53 AM,48.9,43.0,80,30.02,7.0,Calm,Calm,-,N/A,,Clear,0,2013-11-27 09:53:00
2:53 AM,48.0,44.1,86,30.01,6.0,Calm,Calm,-,N/A,,Clear,0,2013-11-27 10:53:00
3:53 AM,46.0,42.1,86,30.00,5.0,Calm,Calm,-,N/A,,Clear,0,2013-11-27 11:53:00
4:53 AM,45.0,42.1,90,29.98,5.0,Calm,Calm,-,N/A,,Clear,0,2013-11-27 12:53:00
5:53 AM,45.0,41.0,86,29.97,4.0,Calm,Calm,-,N/A,,Clear,0,2013-11-27 13:53:00
6:53 AM,44.1,41.0,89,29.96,3.0,Calm,Calm,-,N/A,,Clear,0,2013-11-27 14:53:00
7:53 AM,44.1,41.0,89,29.96,3.0,Calm,Calm,-,N/A,,Clear,0,2013-11-27 15:53:00
8:53 AM,48.0,44.1,86,29.97,3.0,Calm,Calm,-,N/A,,Clear,0,2013-11-27 16:53:00
9:53 AM,51.1,45.0,80,29.96,3.0,West,3.5,-,N/A,,Haze,260,2013-11-27 17:53:00
10:53 AM,54.0,45.0,72,29.95,3.0,WNW,3.5,-,N/A,,Haze,290,2013-11-27 18:53:00
11:53 AM,59.0,45.0,60,29.91,4.0,Calm,Calm,-,N/A,,Haze,0,2013-11-27 19:53:00
11:54 AM,59.0,44.6,59,29.91,3.0,Calm,Calm,-,N/A,,Haze,0,2013-11-27 19:54:00
12:53 PM,62.1,44.1,52,29.88,3.0,ENE,9.2,-,N/A,,Haze,70,2013-11-27 20:53:00
1:53 PM,62.1,45.0,53,29.86,5.0,ENE,10.4,-,N/A,,Haze,70,2013-11-27 21:53:00
2:53 PM,61.0,45.0,56,29.86,5.0,ENE,10.4,-,N/A,,Haze,70,2013-11-27 22:53:00
3:53 PM,60.1,45.0,57,29.85,4.0,ENE,8.1,-,N/A,,Haze,70,2013-11-27 23:53:00
4:53 PM,57.0,45.0,64,29.86,5.0,East,6.9,-,N/A,,Haze,80,2013-11-28 00:53:00
5:53 PM,55.9,45.0,67,29.87,6.0,NE,3.5,-,N/A,,Haze,50,2013-11-28 01:53:00
6:53 PM,54.0,45.0,72,29.87,5.0,Calm,Calm,-,N/A,,Haze,0,2013-11-28 02:53:00
7:53 PM,53.1,45.0,74,29.88,5.0,Calm,Calm,-,N/A,,Haze,0,2013-11-28 03:53:00
8:53 PM,50.0,45.0,83,29.88,4.0,Calm,Calm,-,N/A,,Haze,0,2013-11-28 04:53:00
9:53 PM,48.0,43.0,83,29.88,4.0,Calm,Calm,-,N/A,,Haze,0,2013-11-28 05:53:00
10:53 PM,48.0,43.0,83,29.89,4.0,Calm,Calm,-,N/A,,Haze,0,2013-11-28 06:53:00
11:53 PM,46.9,42.1,83,29.89,4.0,Calm,Calm,-,N/A,,Haze,0,2013-11-28 07:53:00